[TLELIST] Archives

 

[list_settings.list_name] Current TLEs

December 29th 2012 PDT

HST 1 20580U 90037B 12363.90482294 .00001332 00000-0 83950-4 0 1425 2 20580 028.4707 308.7061 0002956 331.4534 028.5906 15.03160511 44040 ISS (ZARYA) 1 25544U 98067A 12364.50549139 .00005577 00000-0 98940-4 0 9204 2 25544 051.6474 231.2563 0016518 100.8780 326.8433 15.51795113808357 CXO 1 25867U 99040B 12364.64889573 -.00000839 00000-0 00000+0 0 8344 2 25867 074.2072 350.5226 8687300 278.0975 000.0343 00.37797429 9899 ____________________________________________________________________ These 2-Line ...Continue Reading

[list_settings.list_name] Current TLEs

December 28th 2012 PDT

HST 1 20580U 90037B 12362.31132391 .00001284 00000-0 80486-4 0 1415 2 20580 028.4705 319.1453 0003000 311.6972 048.3361 15.03156628 43808 ISS (ZARYA) 1 25544U 98067A 12363.28873213 .00005458 00000-0 97052-4 0 9156 2 25544 051.6478 237.3007 0016544 096.4301 009.4461 15.51779859808162 CXO 1 25867U 99040B 12364.64889573 -.00000839 00000-0 00000+0 0 8344 2 25867 074.2072 350.5226 8687300 278.0975 000.0343 00.37797429 9899 ____________________________________________________________________ These 2-Line ...Continue Reading

[list_settings.list_name] Current TLEs

December 27th 2012 PDT

HST 1 20580U 90037B 12361.18259286 .00001279 00000-0 80076-4 0 1400 2 20580 028.4708 326.5377 0003053 297.2336 062.7937 15.03154069 43636 ISS (ZARYA) 1 25544U 98067A 12362.50818409 .00005589 00000-0 99209-4 0 9089 2 25544 051.6478 241.1783 0016547 093.7541 328.7938 15.51771139808041 CXO 1 25867U 99040B 12364.64889573 -.00000839 00000-0 00000+0 0 8344 2 25867 074.2072 350.5226 8687300 278.0975 000.0343 00.37797429 9899 ____________________________________________________________________ These 2-Line ...Continue Reading

[list_settings.list_name] Current TLEs

December 26th 2012 PDT

HST 1 20580U 90037B 12361.18259286 .00001279 00000-0 80076-4 0 1400 2 20580 028.4708 326.5377 0003053 297.2336 062.7937 15.03154069 43636 ISS (ZARYA) 1 25544U 98067A 12361.10713407 .00006173 00000-0 10882-3 0 9007 2 25544 051.6490 248.1367 0016469 088.7439 061.8822 15.51755773807821 CXO 1 25867U 99040B 12362.00386485 -.00001047 00000-0 00000+0 0 8337 2 25867 074.1764 350.7457 8689633 278.1008 359.9331 00.37798723 9883 ____________________________________________________________________ These 2-Line ...Continue Reading

[list_settings.list_name] Current TLEs

December 25th 2012 PDT

HST 1 20580U 90037B 12359.38989967 .00001405 00000-0 89186-4 0 1395 2 20580 028.4708 338.2772 0003106 278.8116 081.2126 15.03150374 43366 ISS (ZARYA) 1 25544U 98067A 12360.32593468 .00004945 00000-0 88793-4 0 8936 2 25544 051.6474 252.0195 0016404 085.4439 018.2751 15.51743056807704 CXO 1 25867U 99040B 12362.00386485 -.00001047 00000-0 00000+0 0 8337 2 25867 074.1764 350.7457 8689633 278.1008 359.9331 00.37798723 9883 ____________________________________________________________________ These 2-Line ...Continue Reading

[list_settings.list_name] Current TLEs

December 24th 2012 PDT

HST 1 20580U 90037B 12358.19476880 .00001430 00000-0 90994-4 0 1384 2 20580 028.4703 346.1073 0003234 264.8374 095.1847 15.03147358 43188 ISS (ZARYA) 1 25544U 98067A 12359.29432962 .00055163 00000-0 90428-3 0 8879 2 25544 051.6468 257.1450 0016431 082.1594 014.9551 15.51764965807548 CXO 1 25867U 99040B 12362.00386485 -.00001047 00000-0 00000+0 0 8337 2 25867 074.1764 350.7457 8689633 278.1008 359.9331 00.37798723 9883 ____________________________________________________________________ These 2-Line ...Continue Reading

[list_settings.list_name] Current TLEs

December 23rd 2012 PDT

HST 1 20580U 90037B 12358.19476880 .00001430 00000-0 90994-4 0 1384 2 20580 028.4703 346.1073 0003234 264.8374 095.1847 15.03147358 43188 ISS (ZARYA) 1 25544U 98067A 12358.32889038 .00011455 00000-0 19306-3 0 8807 2 25544 051.6487 261.9350 0017467 076.1831 024.0542 15.52031266807395 CXO 1 25867U 99040B 12359.36057024 -.00001247 00000-0 00000+0 0 8327 2 25867 074.1593 350.9371 8690670 278.1157 000.0572 00.37799083 9878 ____________________________________________________________________ These 2-Line ...Continue Reading

[list_settings.list_name] Current TLEs

December 22nd 2012 PDT

HST 1 20580U 90037B 12356.40206773 .00001827 00000-0 11976-3 0 1379 2 20580 028.4704 357.8488 0003398 245.5487 114.4750 15.03143613 42918 ISS (ZARYA) 1 25544U 98067A 12357.24300352 .00011819 00000-0 19911-3 0 8765 2 25544 051.6487 267.3315 0017497 072.3507 076.7378 15.52006756807226 CXO 1 25867U 99040B 12359.36057024 -.00001247 00000-0 00000+0 0 8327 2 25867 074.1593 350.9371 8690670 278.1157 000.0572 00.37799083 9878 ____________________________________________________________________ These 2-Line ...Continue Reading

[list_settings.list_name] Current TLEs

December 21st 2012 PDT

HST 1 20580U 90037B 12355.20693215 .00002108 00000-0 14006-3 0 1366 2 20580 028.4702 005.6798 0003375 233.7999 126.2273 15.03140676 42737 ISS (ZARYA) 1 25544U 98067A 12356.31492895 .00013180 00000-0 21339-3 0 8700 2 25544 051.6476 271.9428 0017279 070.3316 290.0056 15.51984345211236 CXO 1 25867U 99040B 12354.09806808 .00000000 00000-0 10000-3 0 8302 2 25867 074.1129 351.3051 8691758 278.1284 003.7661 00.37811335 9944 ____________________________________________________________________ These 2-Line ...Continue Reading

[list_settings.list_name] Current TLEs

December 20th 2012 PDT

HST 1 20580U 90037B 12355.20693215 .00002108 00000-0 14006-3 0 1366 2 20580 028.4702 005.6798 0003375 233.7999 126.2273 15.03140676 42737 ISS (ZARYA) 1 25544U 98067A 12355.36674976 .00014471 00000-0 24232-3 0 8682 2 25544 051.6488 276.6536 0017331 066.0420 033.2293 15.51966923806937 CXO 1 25867U 99040B 12356.71521394 -.00001310 00000-0 00000+0 0 8319 2 25867 074.1480 351.0890 8693640 278.1442 359.9137 00.37801954 9861 ____________________________________________________________________ These 2-Line ...Continue Reading
  • This mailing list is a public mailing list - anyone may join or leave, at any time.
  • This mailing list is announce-only.

International Space Station (ISS) / Hubble Space Telescope (HST) / Chandra X-Ray Observatory Orbital Data via EMAIL

Privacy Policy:

Private list